sat.trackr.live / text

‹ back to catalog

STARLINK-36191

NORAD 67023 · 2025-293W

PAYLOAD ACTIVE UNKNOWN

§ Identity

Operator
Country
US
Launch date
2025-12-10
Launch site
AFWTR
Launch vehicle
Mass (kg)
RCS (m²)

Purposes: comms

External: N2YO · Heavens-Above · Gunter

§ Orbital elements

Epoch: 2026-05-25T01:26:40.157664Z

Period
96.11 min
Inclination
70.0006°
Eccentricity
0.0003176
Mean motion
14.98335231 rev/d
Perigee alt
569.8 km
Apogee alt
574.2 km
Semi-major
6,950.2 km
B*
2.7321e-4
RAAN
262.0443°
Arg perigee
269.0938°
Mean anomaly
90.9858°
Rev number
2,632

§ Raw data

STARLINK-361911 67023U 25293W   26145.06018701  .00003169  00000+0  27321-3 0  99962 67023  70.0006 262.0443 0003176 269.0938  90.9858 14.98335231 26329

JSON: /api/v1/satellites/67023 · /tle

For live sub-satellite position, see the globe view (requires WebGL).

§ Visibility from observer

Set your observer location to see the next 7 days of passes ≥ 10°. The values pass through the URL so the page stays shareable.

No JS? Fill the form by hand. The geolocation button needs JavaScript.